[[{"header":{"parameterUnit":"m.s-1","parameterCategory":1,"la1":30.2992,"la2":30.254,"lo1":-89.0895,"lo2":-89.0443,"dy":0.0025,"dx":0.0025,"nx":19,"ny":19,"refTime":"2026-05-18T21:00:00:Z","depth":0,"parameterNumber":2,"parameterNumberName":"U-component_of_WINDS"},"data":[0,0,0,-3.6154,-3.6157,-3.6326,-3.6327,-3.6546,-3.6548,0,0,0,0,0,0,0,0,0,0,0,-3.6104,-3.6106,-3.6153,-3.6158,-3.6326,-3.6327,-3.6546,-3.6548,0,0,0,0,0,0,0,0,0,0,0,-3.6104,-3.6105,-3.6107,-3.6158,-3.6326,-3.6327,-3.6545,-3.6417,0,0,0,0,0,0,0,0,0,0,-3.6253,-3.6208,-3.6105,-3.6107,-3.6159,-3.6326,-3.6327,-3.6411,-3.6425,-3.6471,0,-3.651,0,-3.6533,-3.6563,-3.6564,0,0,0,-3.6157,-3.6196,-3.624,-3.6108,-3.6161,-3.6326,-3.625,-3.6419,-3.6435,-3.649,-3.6514,-3.6522,-3.6536,-3.6564,-3.6565,-3.6827,-3.6828,0,0,-3.6148,-3.6135,-3.6229,-3.6251,-3.6224,-3.6245,-3.6255,-3.6428,-3.6454,-3.6514,-3.6527,-3.654,-3.6566,-3.6568,-3.6826,-3.6827,0,0,0,-3.6121,-3.6129,-3.6169,-3.6242,-3.6272,-3.625,-3.6262,-3.6446,-3.6461,-3.6529,-3.6543,-3.6567,-3.657,-3.6825,-3.6826,-3.6874,0,0,0,-3.6116,-3.6113,-3.6165,-3.6159,-3.6269,-3.6361,-3.6276,-3.6449,-3.6469,-3.6541,-3.6567,-3.6572,-3.6823,-3.6826,-3.687,-3.6898,0,0,0,-3.6093,-3.6111,-3.6135,-3.6158,-3.623,-3.6359,-3.6383,-3.6453,-3.6477,-3.6564,-3.6573,-3.6822,-3.6825,-3.6866,-3.6892,-3.6962,0,0,0,-3.6066,-3.6176,-3.6136,-3.6265,-3.6229,-3.6387,-3.6382,-3.6501,-3.6581,-3.6568,-3.6823,-3.6826,-3.6865,-3.6888,-3.6958,-3.7018,-3.7042,0,0,-3.6198,-3.6191,-3.6268,-3.6237,-3.6399,-3.6362,-3.6532,-3.6618,-3.6638,-3.6763,-3.677,-3.6871,-3.6891,-3.6961,-3.7184,-3.7203,0,0,0,-3.6306,-3.6361,-3.6406,-3.6482,-3.655,-3.661,-3.6672,-3.6704,-3.6811,-3.6699,-3.6917,-3.6929,-3.6971,-3.7,-3.7016,-3.7052,-3.684,-3.6839,-3.6839,-3.6474,-3.6494,-3.6622,-3.6662,-3.6736,-3.6798,-3.686,-3.6914,-3.6913,-3.6965,-3.7001,-3.7134,-3.7167,-3.718,-3.7217,-3.7036,-3.7036,-3.7036,-3.7036,-3.6668,-3.6748,-3.6745,-3.6868,-3.6889,-3.6993,-3.7058,-3.7054,-3.7155,-3.7108,-3.7145,-3.709,-3.72,-3.7233,-3.704,-3.704,-3.7039,-3.7039,-3.7038,-3.6779,-3.682,-3.6857,-3.6969,-3.7053,-3.7091,-3.7187,-3.7204,-3.722,-3.7258,-3.7298,-3.7297,-3.7297,-3.7276,-3.7276,-3.7277,-3.7277,-3.7278,-3.7278,-3.6878,-3.6918,-3.6996,-3.7079,-3.7129,-3.7198,-3.7264,-3.7315,-3.7375,-3.738,-3.738,-3.7374,-3.7207,-3.7164,-3.7285,-3.7284,-3.7283,-3.7282,-3.7282,-3.7064,-3.7025,-3.7146,-3.7197,-3.7295,-3.7377,-3.7397,-3.75,-3.7545,-3.7592,-3.7579,-3.7453,-3.7448,-3.7435,-3.7399,-3.7574,-3.7574,-3.7574,-3.7574,-3.7156,-3.7155,-3.7283,-3.7363,-3.7444,-3.7474,-3.7612,-3.7664,-3.7713,-3.7742,-3.772,-3.7675,-3.7661,-3.7664,-3.7646,-3.7613,-3.7838,-3.7839,-3.7839,-3.7271,-3.7279,-3.7392,-3.7437,-3.7516,-3.7583,-3.7713,-3.7806,-3.7853,-3.785,-3.7765,-3.7754,-3.7681,-3.7657,-3.7649,-3.7621,-3.756,0,0]},{"header":{"parameterUnit":"m.s-1","parameterCategory":1,"la1":30.2992,"la2":30.254,"lo1":-89.0895,"lo2":-89.0443,"dy":0.0025,"dx":0.0025,"nx":19,"ny":19,"refTime":"2026-05-18T21:00:00:Z","depth":0,"parameterNumber":3,"parameterNumberName":"V-component_of_WINDS"},"data":[0,0,0,2.1197,2.1198,2.1249,2.1249,2.1321,2.1322,0,0,0,0,0,0,0,0,0,0,0,2.1187,2.1188,2.1197,2.1198,2.1249,2.1249,2.1321,2.1322,0,0,0,0,0,0,0,0,0,0,0,2.1187,2.1187,2.1188,2.1198,2.1248,2.1249,2.1321,2.128,0,0,0,0,0,0,0,0,0,0,2.1229,2.1225,2.1187,2.1188,2.1199,2.1248,2.1249,2.1278,2.1282,2.1302,0,2.1321,0,2.1323,2.1327,2.1327,0,0,0,2.1194,2.1221,2.1231,2.1188,2.1199,2.1248,2.1225,2.128,2.1285,2.1308,2.1322,2.1324,2.1324,2.1328,2.1328,2.1456,2.1457,0,0,2.1191,2.1198,2.1227,2.1234,2.1228,2.1223,2.1226,2.1283,2.1298,2.1322,2.1326,2.1325,2.1328,2.1329,2.1455,2.1456,0,0,0,2.1186,2.1197,2.1204,2.1232,2.124,2.1225,2.1228,2.1296,2.1298,2.1326,2.1326,2.1329,2.133,2.1454,2.1455,2.1502,0,0,0,2.1184,2.1194,2.1203,2.1208,2.1239,2.1269,2.124,2.1294,2.13,2.1325,2.1329,2.133,2.1453,2.1455,2.1499,2.1523,0,0,0,2.1182,2.1193,2.1202,2.1208,2.1231,2.1268,2.1273,2.1295,2.13,2.1327,2.1331,2.1453,2.1455,2.1496,2.1519,2.156,0,0,0,2.1181,2.1242,2.1203,2.1271,2.123,2.1296,2.1272,2.1321,2.135,2.1329,2.1453,2.1455,2.1496,2.1516,2.1557,2.1597,2.1614,0,0,2.1262,2.1252,2.1291,2.1258,2.1334,2.1288,2.137,2.1389,2.1384,2.1432,2.1435,2.15,2.1518,2.156,2.1706,2.172,0,0,0,2.132,2.1348,2.1366,2.1395,2.1413,2.1429,2.1436,2.1443,2.1484,2.1411,2.1526,2.1536,2.156,2.1579,2.1591,2.1611,2.1464,2.1464,2.1464,2.1444,2.1436,2.1501,2.15,2.1529,2.1536,2.1558,2.1569,2.1551,2.1579,2.1593,2.1683,2.1705,2.1714,2.1736,2.1613,2.1613,2.1613,2.1613,2.1562,2.1602,2.1579,2.1635,2.1626,2.1672,2.1682,2.1668,2.171,2.1671,2.1692,2.1651,2.1729,2.1748,2.1617,2.1616,2.1616,2.1616,2.1615,2.1643,2.1661,2.167,2.1713,2.1746,2.1743,2.1785,2.1775,2.1766,2.1786,2.1801,2.18,2.1799,2.1794,2.1794,2.1795,2.1795,2.1795,2.1795,2.1724,2.1733,2.177,2.1795,2.1813,2.1836,2.1845,2.1862,2.1879,2.1869,2.1869,2.185,2.1738,2.1711,2.18,2.1799,2.1799,2.1798,2.1798,2.1848,2.1819,2.1877,2.1895,2.1925,2.1959,2.1947,2.1984,2.1997,2.2018,2.1995,2.1914,2.1903,2.1893,2.1871,2.1996,2.1996,2.1996,2.1996,2.1918,2.1912,2.1969,2.2,2.2028,2.2024,2.2089,2.2097,2.21,2.2108,2.2089,2.2058,2.2048,2.2043,2.203,2.2009,2.2166,2.2166,2.2167,2.1994,2.1991,2.2049,2.2053,2.2075,2.2095,2.2157,2.2193,2.219,2.2173,2.2114,2.2107,2.2057,2.2041,2.2023,2.2003,2.1964,0,0]}]]